GTI658 RKSI-PANC

Flight info

Callsign GTI658
Flight time 6h 49m
Altitude 33000
Route EGOBA2E EGOBA Y697 LANAT Y51 SAMON Y142 GTC Y512 SDE/N0515F350 Y512 OATIS Y889 PUTER A590 PLADO/N0511F370 A590 HAMND NEELL7
Aircraft B748/H-V/N

Departure

Time 2026-05-04 09:46
Airport Incheon International Airport (RKSI)

Arrival

Time 2026-05-04 16:35
Airport Ted Stevens Anchorage International Airport (PANC)
Time Latitude Longitude Altitude Speed Heading
2026-05-04 09:19 37.47202 126.45933 38 ft 0 kts 144°
2026-05-04 09:34 37.47262 126.45885 36 ft 2 kts 158°
2026-05-04 09:34 37.47278 126.45879 37 ft 2 kts 189°
2026-05-04 09:34 37.47291 126.45886 37 ft 1 kts 236°
2026-05-04 09:34 37.47293 126.45890 37 ft 0 kts 232°
2026-05-04 09:38 37.47284 126.45874 38 ft 5 kts 234°
2026-05-04 09:38 37.47268 126.45846 38 ft 3 kts 234°
2026-05-04 09:38 37.47256 126.45825 38 ft 5 kts 234°
2026-05-04 09:38 37.47226 126.45771 38 ft 10 kts 234°
2026-05-04 09:39 37.47176 126.45683 38 ft 14 kts 234°
2026-05-04 09:39 37.47124 126.45588 38 ft 11 kts 234°
2026-05-04 09:39 37.47083 126.45525 38 ft 5 kts 211°
2026-05-04 09:39 37.47046 126.45529 38 ft 9 kts 167°
2026-05-04 09:40 37.46975 126.45584 36 ft 14 kts 143°
2026-05-04 09:40 37.46901 126.45651 38 ft 12 kts 145°
2026-05-04 09:40 37.46822 126.45722 38 ft 15 kts 145°
2026-05-04 09:40 37.46728 126.45806 37 ft 18 kts 144°
2026-05-04 09:41 37.46620 126.45902 38 ft 20 kts 144°
2026-05-04 09:42 37.46122 126.46039 39 ft 19 kts 234°
2026-05-04 09:43 37.46054 126.45917 39 ft 15 kts 233°
2026-05-04 09:43 37.45989 126.45892 38 ft 8 kts 155°
2026-05-04 09:43 37.45927 126.45944 38 ft 16 kts 144°
2026-05-04 09:43 37.45811 126.46048 38 ft 23 kts 144°
2026-05-04 09:44 37.45690 126.46156 37 ft 20 kts 145°
2026-05-04 09:44 37.45600 126.46236 38 ft 13 kts 144°
2026-05-04 09:44 37.45536 126.46259 38 ft 6 kts 202°
2026-05-04 09:46 37.47553 126.44187 144 ft 173 kts 320°
2026-05-04 09:46 37.48568 126.43300 746 ft 178 kts 322°
2026-05-04 09:46 37.49579 126.42448 1602 ft 169 kts 323°
2026-05-04 09:47 37.50540 126.41668 2360 ft 165 kts 324°
2026-05-04 09:47 37.51526 126.40878 2901 ft 168 kts 325°
2026-05-04 09:49 37.61329 126.35372 5540 ft 257 kts 346°
2026-05-04 09:49 37.63111 126.35488 5477 ft 262 kts 18°
2026-05-04 09:49 37.64644 126.36759 5526 ft 270 kts 46°
2026-05-04 09:51 37.65201 126.51055 7071 ft 294 kts 108°
2026-05-04 09:51 37.64498 126.53450 7695 ft 292 kts 112°
2026-05-04 09:51 37.63300 126.55530 8386 ft 297 kts 134°
2026-05-04 09:51 37.61817 126.57386 9003 ft 302 kts 135°
2026-05-04 09:52 37.60272 126.59208 9633 ft 306 kts 138°
2026-05-04 09:52 37.58648 126.60985 10193 ft 310 kts 138°
2026-05-04 09:52 37.56965 126.62856 10406 ft 336 kts 137°
2026-05-04 09:52 37.55168 126.64883 10779 ft 357 kts 137°
2026-05-04 09:53 37.53296 126.67066 11215 ft 376 kts 136°
2026-05-04 09:53 37.51324 126.69342 11673 ft 393 kts 137°
2026-05-04 09:53 37.49258 126.71692 12150 ft 408 kts 137°
2026-05-04 09:53 37.47106 126.74127 12671 ft 422 kts 137°
2026-05-04 09:54 37.44923 126.76592 13287 ft 431 kts 137°
2026-05-04 09:54 37.42913 126.79394 13994 ft 433 kts 121°
2026-05-04 09:54 37.41625 126.82809 14715 ft 433 kts 104°
2026-05-04 09:54 37.41131 126.86529 15442 ft 431 kts 90°
2026-05-04 09:55 37.41143 126.90300 16137 ft 433 kts 85°
2026-05-04 09:55 37.41392 126.94024 16587 ft 441 kts 78°
2026-05-04 09:55 37.42019 126.97816 17171 ft 444 kts 74°
2026-05-04 09:55 37.42749 127.01606 17811 ft 448 kts 73°
2026-05-04 09:56 37.43498 127.05439 18451 ft 452 kts 74°
2026-05-04 09:56 37.44115 127.09340 18996 ft 458 kts 77°
2026-05-04 09:56 37.44695 127.13292 19630 ft 460 kts 76°
2026-05-04 09:56 37.45351 127.17256 20261 ft 465 kts 74°
2026-05-04 09:57 37.46053 127.21251 20877 ft 470 kts 75°
2026-05-04 09:57 37.46725 127.25292 21492 ft 475 kts 75°
2026-05-04 09:57 37.47387 127.29389 22044 ft 481 kts 76°
2026-05-04 09:57 37.48042 127.33489 22631 ft 485 kts 76°
2026-05-04 09:58 37.48702 127.37676 23213 ft 490 kts 76°
2026-05-04 09:58 37.49368 127.41916 23728 ft 496 kts 76°
2026-05-04 09:58 37.50049 127.46197 24149 ft 501 kts 76°
2026-05-04 10:00 37.55016 127.77459 27076 ft 538 kts 76°
2026-05-04 10:00 37.55744 127.82107 27468 ft 543 kts 76°
2026-05-04 10:02 37.60991 128.15536 30763 ft 561 kts 77°
2026-05-04 10:04 37.66220 128.49668 32941 ft 565 kts 78°
2026-05-04 10:04 37.67675 128.59422 32962 ft 571 kts 77°
2026-05-04 10:05 37.69038 128.69331 32982 ft 576 kts 87°
2026-05-04 10:05 37.68828 128.74373 33295 ft 575 kts 102°
2026-05-04 10:05 37.67740 128.79174 33963 ft 565 kts 113°
2026-05-04 10:05 37.66255 128.83760 34215 ft 562 kts 122°
2026-05-04 10:06 37.64277 128.87986 34510 ft 558 kts 128°
2026-05-04 10:06 37.62136 128.92071 34822 ft 558 kts 129°
2026-05-04 10:06 37.60006 128.96176 34946 ft 563 kts 127°
2026-05-04 10:08 37.46045 129.25377 34984 ft 563 kts 127°
2026-05-04 10:08 37.41895 129.33841 34986 ft 571 kts 128°
2026-05-04 10:09 37.37791 129.42398 34979 ft 570 kts 128°
2026-05-04 10:09 37.33611 129.50868 34984 ft 569 kts 128°
2026-05-04 10:10 37.29533 129.59326 34997 ft 569 kts 128°
2026-05-04 10:10 37.25348 129.67754 34995 ft 569 kts 128°
2026-05-04 10:11 37.21238 129.76249 35019 ft 569 kts 129°
2026-05-04 10:11 37.17039 129.84674 35014 ft 570 kts 129°
2026-05-04 10:12 37.12895 129.93152 35008 ft 569 kts 130°
2026-05-04 10:12 37.08714 130.01586 35011 ft 571 kts 129°
2026-05-04 10:13 37.04536 130.10011 35021 ft 569 kts 130°
2026-05-04 10:13 37.00359 130.18457 35013 ft 570 kts 130°
2026-05-04 10:14 36.96148 130.26838 35021 ft 569 kts 131°
2026-05-04 10:16 36.79345 130.60317 35028 ft 569 kts 131°
2026-05-04 10:16 36.75157 130.68721 35020 ft 569 kts 132°
2026-05-04 10:17 36.71613 130.75627 35031 ft 569 kts 132°
2026-05-04 10:19 36.54710 131.08961 35037 ft 569 kts 133°
2026-05-04 10:19 36.50451 131.17227 35034 ft 566 kts 134°
2026-05-04 10:20 36.46239 131.25521 35033 ft 567 kts 133°
2026-05-04 10:20 36.41965 131.33727 35049 ft 566 kts 134°
2026-05-04 10:21 36.38234 131.42458 35058 ft 593 kts 115°
2026-05-04 10:21 36.37423 131.47556 35060 ft 611 kts 101°
2026-05-04 10:21 36.37067 131.52806 35055 ft 611 kts 102°
2026-05-04 10:22 36.36448 131.68620 35036 ft 616 kts 97°
2026-05-04 10:23 36.36177 131.79238 35033 ft 614 kts 99°
2026-05-04 10:25 36.34727 132.21623 35029 ft 615 kts 98°
2026-05-04 10:25 36.34297 132.32188 35050 ft 614 kts 98°
2026-05-04 10:26 36.33918 132.42758 35036 ft 611 kts 100°
2026-05-04 10:26 36.33548 132.53291 35046 ft 611 kts 99°
2026-05-04 10:27 36.33089 132.63812 35030 ft 611 kts 98°
2026-05-04 10:27 36.32682 132.74301 35039 ft 607 kts 100°
2026-05-04 10:28 36.32287 132.84763 35037 ft 607 kts 99°
2026-05-04 10:28 36.31810 132.95190 35038 ft 606 kts 99°
2026-05-04 10:29 36.31369 133.05548 35027 ft 605 kts 101°
2026-05-04 10:29 36.30952 133.15975 35042 ft 605 kts 100°
2026-05-04 10:30 36.30463 133.26390 35035 ft 606 kts 99°
2026-05-04 10:30 36.29973 133.36809 35038 ft 604 kts 101°
2026-05-04 10:31 36.29540 133.47224 35031 ft 604 kts 100°
2026-05-04 10:32 36.27750 133.83487 35032 ft 602 kts 101°
2026-05-04 10:33 36.27273 133.93860 35038 ft 602 kts 101°
2026-05-04 10:33 36.26716 134.04218 35032 ft 604 kts 99°
2026-05-04 10:34 36.26166 134.14573 35037 ft 601 kts 101°
2026-05-04 10:34 36.25663 134.24935 35026 ft 602 kts 101°
2026-05-04 10:35 36.25070 134.35264 35036 ft 602 kts 99°
2026-05-04 10:35 36.24551 134.45616 35016 ft 605 kts 96°
2026-05-04 10:36 36.24948 134.50852 35036 ft 616 kts 81°
2026-05-04 10:36 36.26224 134.55936 35051 ft 622 kts 68°
2026-05-04 10:36 36.30221 134.65453 35031 ft 623 kts 62°
2026-05-04 10:37 36.34118 134.75039 35027 ft 622 kts 66°
2026-05-04 10:37 36.37917 134.84692 35025 ft 623 kts 63°
2026-05-04 10:39 36.51203 135.18389 35015 ft 621 kts 65°
2026-05-04 10:40 36.54973 135.28053 35008 ft 621 kts 64°
2026-05-04 10:40 36.58703 135.37738 35006 ft 620 kts 65°
2026-05-04 10:41 36.62497 135.47393 34998 ft 620 kts 66°
2026-05-04 10:41 36.66256 135.57055 35023 ft 620 kts 65°
2026-05-04 10:42 36.69953 135.66767 35001 ft 620 kts 64°
2026-05-04 10:42 36.73705 135.76447 35000 ft 620 kts 66°
2026-05-04 10:43 36.77459 135.86137 34995 ft 620 kts 65°
2026-05-04 10:45 36.92230 136.25033 34995 ft 621 kts 64°
2026-05-04 10:45 36.95908 136.34795 35005 ft 621 kts 66°
2026-05-04 10:46 36.99632 136.44548 34999 ft 621 kts 65°
2026-05-04 10:46 37.03282 136.54319 34993 ft 620 kts 64°
2026-05-04 10:47 37.06907 136.64106 34975 ft 619 kts 65°
2026-05-04 10:47 37.10592 136.73844 34972 ft 618 kts 66°
2026-05-04 10:49 37.25058 137.12882 34942 ft 616 kts 64°
2026-05-04 10:50 37.28606 137.22678 34944 ft 615 kts 64°
2026-05-04 10:52 37.42827 137.61658 34936 ft 612 kts 66°
2026-05-04 10:52 37.46387 137.71383 34947 ft 612 kts 65°
2026-05-04 10:54 37.60364 138.10420 34926 ft 612 kts 64°
2026-05-04 10:56 37.74238 138.49703 34914 ft 612 kts 65°
2026-05-04 10:57 37.77730 138.59516 34902 ft 612 kts 66°
2026-05-04 10:57 37.81184 138.69338 34905 ft 611 kts 65°
2026-05-04 10:58 37.84580 138.79218 34881 ft 611 kts 65°
2026-05-04 10:58 37.88027 138.89040 34876 ft 612 kts 66°
2026-05-04 10:59 37.91468 138.98895 34854 ft 611 kts 65°
2026-05-04 10:59 37.94823 139.08802 34852 ft 612 kts 67°
2026-05-04 11:00 37.96793 139.19278 34866 ft 612 kts 85°
2026-05-04 11:02 38.01148 139.62121 34891 ft 612 kts 84°
2026-05-04 11:05 38.08944 140.40161 34772 ft 608 kts 85°
2026-05-04 11:06 38.09966 140.50823 34708 ft 608 kts 83°
2026-05-04 11:06 38.10935 140.61478 34684 ft 607 kts 84°
2026-05-04 11:08 38.13281 140.98875 34653 ft 603 kts 103°
2026-05-04 11:10 38.08870 141.35796 34706 ft 606 kts 101°
2026-05-04 11:12 38.03935 141.78023 34695 ft 603 kts 103°
2026-05-04 11:12 38.02708 141.88548 34702 ft 603 kts 102°
2026-05-04 11:13 38.01398 141.99042 34700 ft 603 kts 102°
2026-05-04 11:13 38.00155 142.09480 34696 ft 602 kts 103°
2026-05-04 11:14 37.98893 142.19986 34709 ft 603 kts 103°
2026-05-04 11:16 37.93626 142.61815 34710 ft 599 kts 103°
2026-05-04 11:16 37.92345 142.72229 34705 ft 597 kts 104°
2026-05-04 11:17 37.91016 142.82618 34703 ft 597 kts 103°
2026-05-04 11:19 37.85605 143.24007 34707 ft 595 kts 105°
2026-05-04 11:19 37.84269 143.34343 34700 ft 595 kts 105°
2026-05-04 11:20 37.82843 143.44649 34697 ft 595 kts 104°
2026-05-04 11:20 37.82626 143.55149 34728 ft 608 kts 81°
2026-05-04 11:22 37.91592 143.91248 34714 ft 633 kts 76°
2026-05-04 11:22 37.93048 143.96524 34711 ft 634 kts 75°
2026-05-04 11:23 37.95825 144.07087 34707 ft 630 kts 77°
2026-05-04 11:25 38.05557 144.43828 34696 ft 626 kts 76°
2026-05-04 11:25 38.08244 144.54305 34693 ft 624 kts 76°
2026-05-04 11:27 38.20382 145.01275 34673 ft 622 kts 76°
2026-05-04 11:28 38.23055 145.11736 34671 ft 621 kts 78°
2026-05-04 11:28 38.25752 145.22187 34662 ft 621 kts 77°
2026-05-04 11:29 38.28366 145.32667 34665 ft 622 kts 76°
2026-05-04 11:29 38.30994 145.43129 34669 ft 620 kts 78°
2026-05-04 11:31 38.50581 145.72308 34652 ft 630 kts 42°
2026-05-04 11:33 38.72983 145.99040 34650 ft 631 kts 41°
2026-05-04 11:33 38.79443 146.06680 34656 ft 632 kts 42°
2026-05-04 11:34 38.85873 146.14372 34649 ft 633 kts 41°
2026-05-04 11:34 38.92273 146.22147 34650 ft 633 kts 41°
2026-05-04 11:35 38.98718 146.29852 34645 ft 633 kts 43°
2026-05-04 11:35 39.05161 146.37588 34633 ft 633 kts 42°
2026-05-04 11:36 39.11555 146.45406 34627 ft 634 kts 41°
2026-05-04 11:36 39.17969 146.53196 34626 ft 634 kts 43°
2026-05-04 11:37 39.24413 146.60959 34631 ft 634 kts 43°
2026-05-04 11:37 39.30807 146.68806 34624 ft 634 kts 41°
2026-05-04 11:38 39.37199 146.76678 34623 ft 635 kts 43°
2026-05-04 11:38 39.43639 146.84498 34616 ft 635 kts 43°
2026-05-04 11:39 39.50047 146.92375 34612 ft 635 kts 41°
2026-05-04 11:41 39.72385 147.20043 34606 ft 635 kts 44°
2026-05-04 11:41 39.78787 147.27968 34603 ft 636 kts 43°
2026-05-04 11:42 39.85133 147.35980 34599 ft 636 kts 42°
2026-05-04 11:42 39.91524 147.43958 34593 ft 636 kts 44°
2026-05-04 11:43 39.97931 147.51928 34597 ft 636 kts 43°
2026-05-04 11:43 40.04277 147.59983 34591 ft 637 kts 42°
2026-05-04 11:44 40.10634 147.68038 34586 ft 637 kts 44°
2026-05-04 11:44 40.17032 147.76048 34582 ft 637 kts 44°
2026-05-04 11:45 40.23377 147.84122 34576 ft 636 kts 42°
2026-05-04 11:45 40.29707 147.92250 34578 ft 637 kts 43°
2026-05-04 11:46 40.36088 148.00311 34588 ft 637 kts 44°
2026-05-04 11:46 40.42440 148.08420 34585 ft 637 kts 43°
2026-05-04 11:47 40.48707 148.16554 34576 ft 637 kts 43°
2026-05-04 11:47 40.55066 148.24684 34576 ft 638 kts 44°
2026-05-04 11:48 40.61424 148.32834 34571 ft 638 kts 44°
2026-05-04 11:48 40.67720 148.41071 34571 ft 638 kts 43°
2026-05-04 11:49 40.74053 148.49281 34565 ft 638 kts 45°
2026-05-04 11:49 40.79341 148.56079 34557 ft 638 kts 44°
2026-05-04 11:50 40.85625 148.64371 34566 ft 638 kts 43°
2026-05-04 11:50 40.91946 148.72614 34560 ft 639 kts 45°
2026-05-04 11:51 40.98282 148.80856 34558 ft 639 kts 44°
2026-05-04 11:51 41.04570 148.89184 34543 ft 639 kts 43°
2026-05-04 11:52 41.10850 148.97521 34550 ft 639 kts 44°
2026-05-04 11:52 41.17180 149.05804 34536 ft 640 kts 45°
2026-05-04 11:53 41.23463 149.14187 34540 ft 640 kts 43°
2026-05-04 11:53 41.29731 149.22598 34536 ft 640 kts 44°
2026-05-04 11:55 41.54794 149.56159 34526 ft 639 kts 45°
2026-05-04 11:56 41.61064 149.64578 34524 ft 639 kts 44°
2026-05-04 11:56 41.67274 149.73079 34519 ft 639 kts 44°
2026-05-04 11:57 41.73510 149.81557 34511 ft 639 kts 45°
2026-05-04 11:57 41.79766 149.89996 34509 ft 639 kts 45°
2026-05-04 11:58 41.85965 149.98533 34506 ft 639 kts 43°
2026-05-04 11:58 41.92169 150.07084 34502 ft 639 kts 45°
2026-05-04 11:59 41.98413 150.15580 34505 ft 639 kts 45°
2026-05-04 11:59 42.04609 150.24143 34501 ft 639 kts 44°
2026-05-04 12:00 42.10770 150.32750 34498 ft 639 kts 44°
2026-05-04 12:00 42.16990 150.41308 34495 ft 639 kts 46°
2026-05-04 12:01 42.23195 150.49910 34486 ft 639 kts 44°
2026-05-04 12:02 42.44737 150.80180 34469 ft 640 kts 46°
2026-05-04 12:03 42.50929 150.88834 34472 ft 640 kts 45°
2026-05-04 12:03 42.57070 150.97566 34467 ft 639 kts 43°
2026-05-04 12:04 42.63195 151.06327 34466 ft 639 kts 45°
2026-05-04 12:04 42.69360 151.15016 34461 ft 639 kts 45°
2026-05-04 12:05 42.75497 151.23768 34449 ft 638 kts 44°
2026-05-04 12:05 42.81533 151.32512 34444 ft 638 kts 44°
2026-05-04 12:06 42.87655 151.41251 34446 ft 638 kts 46°
2026-05-04 12:06 42.93768 151.50010 34436 ft 637 kts 45°
2026-05-04 12:07 42.99816 151.58841 34433 ft 637 kts 44°
2026-05-04 12:07 43.05900 151.67661 34433 ft 637 kts 46°
2026-05-04 12:08 43.11997 151.76444 34430 ft 636 kts 45°
2026-05-04 12:08 43.18026 151.85308 34429 ft 636 kts 44°
2026-05-04 12:09 43.24058 151.94182 34426 ft 636 kts 45°
2026-05-04 12:09 43.30132 152.03011 34421 ft 636 kts 45°
2026-05-04 12:10 43.36165 152.11899 34416 ft 636 kts 44°
2026-05-04 12:10 43.42159 152.20855 34417 ft 636 kts 44°
2026-05-04 12:11 43.48206 152.29735 34419 ft 636 kts 46°
2026-05-04 12:11 43.54238 152.38673 34421 ft 636 kts 45°
2026-05-04 12:12 43.60169 152.47617 34421 ft 636 kts 44°
2026-05-04 12:12 43.66177 152.56580 34420 ft 636 kts 46°
2026-05-04 12:14 43.90100 152.92605 34428 ft 635 kts 45°
2026-05-04 12:15 43.96055 153.01665 34426 ft 634 kts 44°
2026-05-04 12:15 44.01966 153.10774 34425 ft 635 kts 45°
2026-05-04 12:16 44.07929 153.19809 34435 ft 635 kts 45°
2026-05-04 12:16 44.13859 153.28894 34438 ft 634 kts 44°
2026-05-04 12:17 44.19748 153.38067 34439 ft 634 kts 44°
2026-05-04 12:17 44.25677 153.47164 34446 ft 635 kts 46°
2026-05-04 12:18 44.31597 153.56287 34445 ft 634 kts 45°
2026-05-04 12:18 44.37415 153.65436 34454 ft 633 kts 44°
2026-05-04 12:19 44.43344 153.74666 34457 ft 634 kts 46°
2026-05-04 12:19 44.49203 153.83753 34459 ft 633 kts 45°
2026-05-04 12:20 44.55035 153.92988 34465 ft 632 kts 44°
2026-05-04 12:20 44.60876 154.02218 34474 ft 633 kts 45°
2026-05-04 12:21 44.66745 154.11405 34481 ft 632 kts 45°
2026-05-04 12:21 44.72564 154.20662 34485 ft 631 kts 44°
2026-05-04 12:22 44.78365 154.29965 34493 ft 632 kts 45°
2026-05-04 12:22 44.84206 154.39198 34494 ft 632 kts 45°
2026-05-04 12:23 44.89927 154.48614 34501 ft 632 kts 45°
2026-05-04 12:23 44.95659 154.58009 34511 ft 632 kts 46°
2026-05-04 12:24 45.01354 154.67343 34519 ft 631 kts 46°
2026-05-04 12:24 45.07021 154.76833 34522 ft 630 kts 45°
2026-05-04 12:25 45.12711 154.86290 34517 ft 631 kts 46°
2026-05-04 12:25 45.18416 154.95723 34533 ft 630 kts 46°
2026-05-04 12:26 45.24057 155.05229 34546 ft 629 kts 44°
2026-05-04 12:26 45.29697 155.14754 34553 ft 630 kts 46°
2026-05-04 12:27 45.35379 155.24224 34558 ft 630 kts 46°
2026-05-04 12:27 45.41002 155.33769 34563 ft 628 kts 44°
2026-05-04 12:28 45.46600 155.43350 34569 ft 629 kts 45°
2026-05-04 12:28 45.52237 155.52861 34577 ft 628 kts 46°
2026-05-04 12:29 45.57840 155.62412 34582 ft 627 kts 45°
2026-05-04 12:29 45.63386 155.72036 34594 ft 627 kts 45°
2026-05-04 12:30 45.68986 155.81584 34595 ft 627 kts 46°
2026-05-04 12:30 45.74554 155.91165 34606 ft 626 kts 45°
2026-05-04 12:31 45.80066 156.00825 34614 ft 626 kts 45°
2026-05-04 12:31 45.85622 156.10419 34623 ft 626 kts 46°
2026-05-04 12:32 45.93910 156.24887 34635 ft 626 kts 46°
2026-05-04 12:33 45.99439 156.34529 34638 ft 625 kts 45°
2026-05-04 12:33 46.04911 156.44266 34647 ft 624 kts 45°
2026-05-04 12:34 46.10415 156.53944 34656 ft 625 kts 46°
2026-05-04 12:34 46.15921 156.63627 34664 ft 625 kts 46°
2026-05-04 12:35 46.21364 156.73408 34670 ft 624 kts 45°
2026-05-04 12:35 46.25925 156.81479 34678 ft 625 kts 46°
2026-05-04 12:36 46.32277 156.92806 34688 ft 624 kts 46°
2026-05-04 12:36 46.37684 157.02642 34695 ft 623 kts 45°
2026-05-04 12:37 46.42265 157.10815 34702 ft 624 kts 46°
2026-05-04 12:37 46.47659 157.20564 34713 ft 622 kts 45°
2026-05-04 12:38 46.53039 157.30430 34719 ft 623 kts 46°
2026-05-04 12:38 46.58474 157.40217 34728 ft 623 kts 46°
2026-05-04 12:39 46.63850 157.50077 34733 ft 621 kts 45°
2026-05-04 12:39 46.69207 157.59976 34741 ft 622 kts 46°
2026-05-04 12:40 46.74611 157.69811 34750 ft 622 kts 46°
2026-05-04 12:40 46.79948 157.79726 34755 ft 620 kts 44°
2026-05-04 12:41 46.85277 157.89653 34758 ft 621 kts 46°
2026-05-04 12:41 46.90641 157.99525 34773 ft 620 kts 46°
2026-05-04 12:42 46.95926 158.09497 34774 ft 619 kts 45°
2026-05-04 12:42 47.01246 158.19435 34784 ft 620 kts 46°
2026-05-04 12:43 47.06564 158.29368 34789 ft 619 kts 46°
2026-05-04 12:43 47.11804 158.39395 34796 ft 619 kts 45°
2026-05-04 12:44 47.17107 158.49348 34802 ft 619 kts 46°
2026-05-04 12:44 47.22376 158.59345 34808 ft 618 kts 45°
2026-05-04 12:45 47.27591 158.69419 34817 ft 618 kts 46°
2026-05-04 12:45 47.32864 158.79409 34821 ft 618 kts 46°
2026-05-04 12:46 47.38090 158.89460 34832 ft 616 kts 45°
2026-05-04 12:46 47.43243 158.99496 34836 ft 617 kts 46°
2026-05-04 12:47 47.48481 159.09521 34837 ft 616 kts 46°
2026-05-04 12:47 47.53638 159.19634 34842 ft 614 kts 45°
2026-05-04 12:48 47.58817 159.29719 34854 ft 615 kts 47°
2026-05-04 12:48 47.63993 159.39783 34855 ft 614 kts 46°
2026-05-04 12:49 47.69094 159.49942 34859 ft 613 kts 45°
2026-05-04 12:49 47.74247 159.60017 34847 ft 614 kts 46°
2026-05-04 12:50 47.79368 159.70126 34875 ft 611 kts 45°
2026-05-04 12:50 47.84438 159.80316 34875 ft 612 kts 46°
2026-05-04 12:51 47.89560 159.90419 34878 ft 612 kts 46°
2026-05-04 12:51 47.94614 160.00609 34894 ft 609 kts 45°
2026-05-04 12:52 47.99675 160.10776 34896 ft 611 kts 46°
2026-05-04 12:52 48.04749 160.20930 34898 ft 610 kts 46°
2026-05-04 12:53 48.09745 160.31189 34900 ft 609 kts 45°
2026-05-04 12:53 48.14768 160.41281 34905 ft 610 kts 46°
2026-05-04 12:54 48.19779 160.51519 34909 ft 607 kts 45°
2026-05-04 12:54 48.24760 160.61774 34911 ft 609 kts 46°
2026-05-04 12:55 48.29759 160.72011 34910 ft 610 kts 48°
2026-05-04 12:55 48.34502 160.82615 34916 ft 608 kts 46°
2026-05-04 12:56 48.39383 160.93016 34916 ft 610 kts 48°
2026-05-04 12:56 48.44155 161.03575 34936 ft 609 kts 46°
2026-05-04 12:56 48.46599 161.08803 35229 ft 611 kts 47°
2026-05-04 12:57 48.48989 161.14112 35580 ft 613 kts 48°
2026-05-04 12:57 48.51369 161.19442 35929 ft 612 kts 47°
2026-05-04 12:57 48.53819 161.24698 36288 ft 612 kts 47°
2026-05-04 12:57 48.56224 161.30017 36651 ft 614 kts 48°
2026-05-04 12:58 48.58591 161.35365 36934 ft 611 kts 48°
2026-05-04 12:58 48.63387 161.45875 36925 ft 609 kts 47°
2026-05-04 12:59 48.68113 161.56516 36932 ft 608 kts 46°
2026-05-04 12:59 48.72881 161.67117 36934 ft 609 kts 48°
2026-05-04 13:00 48.77633 161.77723 36939 ft 607 kts 47°
2026-05-04 13:00 48.82286 161.88343 36940 ft 608 kts 47°
2026-05-04 13:01 48.87037 161.98916 36930 ft 607 kts 47°
2026-05-04 13:01 48.91673 162.09629 36935 ft 605 kts 47°
2026-05-04 13:02 48.96381 162.20246 36930 ft 606 kts 48°
2026-05-04 13:02 49.01029 162.30908 36936 ft 602 kts 46°
2026-05-04 13:03 49.05654 162.41565 36929 ft 603 kts 48°
2026-05-04 13:03 49.10287 162.52177 36930 ft 601 kts 47°
2026-05-04 13:04 49.14847 162.62878 36931 ft 600 kts 48°
2026-05-04 13:04 49.19455 162.73464 36932 ft 599 kts 47°
2026-05-04 13:05 49.23976 162.84144 36929 ft 596 kts 46°
2026-05-04 13:05 49.28503 162.94669 36934 ft 596 kts 48°
2026-05-04 13:06 49.33013 163.05291 36935 ft 592 kts 46°
2026-05-04 13:06 49.37495 163.15909 36930 ft 593 kts 48°
2026-05-04 13:07 49.41981 163.26493 36929 ft 591 kts 47°
2026-05-04 13:07 49.46408 163.37133 36930 ft 590 kts 48°
2026-05-04 13:08 49.50863 163.47674 36928 ft 587 kts 47°
2026-05-04 13:08 49.55230 163.58284 36936 ft 585 kts 48°
2026-05-04 13:09 49.59631 163.68772 36935 ft 581 kts 48°
2026-05-04 13:09 49.63938 163.79309 36935 ft 579 kts 48°
2026-05-04 13:10 49.68270 163.89734 36932 ft 576 kts 48°
2026-05-04 13:10 49.72530 164.00219 36935 ft 576 kts 48°
2026-05-04 13:11 49.76819 164.10642 36930 ft 573 kts 47°
2026-05-04 13:11 49.81021 164.21035 36932 ft 573 kts 48°
2026-05-04 13:12 49.85259 164.31477 36938 ft 570 kts 47°
2026-05-04 13:12 49.89474 164.41912 36943 ft 571 kts 49°
2026-05-04 13:13 49.97561 164.62040 36942 ft 567 kts 49°
2026-05-04 13:14 50.01688 164.72482 36937 ft 567 kts 49°
2026-05-04 13:14 50.05840 164.82875 36944 ft 564 kts 48°
2026-05-04 13:15 50.09963 164.93291 36946 ft 564 kts 49°
2026-05-04 13:15 50.14037 165.03726 36947 ft 563 kts 49°
2026-05-04 13:16 50.18140 165.14119 36947 ft 562 kts 48°
2026-05-04 13:16 50.22189 165.24592 36941 ft 564 kts 49°
2026-05-04 13:17 50.26191 165.35156 36946 ft 565 kts 49°
2026-05-04 13:17 50.30248 165.45661 36945 ft 564 kts 49°
2026-05-04 13:18 50.34248 165.56235 36940 ft 565 kts 49°
2026-05-04 13:18 50.38234 165.66834 36942 ft 563 kts 49°
2026-05-04 13:19 50.42238 165.77313 36941 ft 564 kts 49°
2026-05-04 13:19 50.46196 165.87945 36943 ft 564 kts 50°
2026-05-04 13:20 50.50174 165.98528 36934 ft 561 kts 49°
2026-05-04 13:20 50.54135 166.09128 36942 ft 562 kts 50°
2026-05-04 13:21 50.58052 166.19776 36937 ft 562 kts 50°
2026-05-04 13:21 50.61994 166.30386 36942 ft 561 kts 49°
2026-05-04 13:22 50.65914 166.41022 36936 ft 561 kts 50°
2026-05-04 13:22 50.69801 166.51698 36945 ft 561 kts 50°
2026-05-04 13:23 50.73689 166.62362 36941 ft 561 kts 50°
2026-05-04 13:23 50.77578 166.73040 36944 ft 561 kts 50°
2026-05-04 13:24 50.81452 166.83733 36942 ft 560 kts 51°
2026-05-04 13:24 50.85309 166.94435 36935 ft 560 kts 51°
2026-05-04 13:25 50.91070 167.10490 36938 ft 558 kts 51°
2026-05-04 13:25 50.94888 167.21192 36939 ft 557 kts 51°
2026-05-04 13:26 50.98690 167.31891 36938 ft 556 kts 52°
2026-05-04 13:26 51.02471 167.42578 36943 ft 554 kts 52°
2026-05-04 13:27 51.06227 167.53237 36946 ft 552 kts 52°
2026-05-04 13:27 51.09964 167.63884 36940 ft 550 kts 52°
2026-05-04 13:28 51.13653 167.74436 36939 ft 548 kts 52°
2026-05-04 13:28 51.17340 167.85027 36939 ft 546 kts 53°
2026-05-04 13:29 51.21005 167.95596 36939 ft 544 kts 53°
2026-05-04 13:29 51.24647 168.06145 36938 ft 542 kts 53°
2026-05-04 13:30 51.28266 168.16674 36934 ft 540 kts 53°
2026-05-04 13:30 51.31862 168.27178 36939 ft 538 kts 54°
2026-05-04 13:31 51.35438 168.37668 36941 ft 537 kts 54°
2026-05-04 13:31 51.39004 168.48168 36934 ft 536 kts 54°
2026-05-04 13:32 51.42526 168.58587 36936 ft 535 kts 54°
2026-05-04 13:32 51.46055 168.69067 36943 ft 534 kts 55°
2026-05-04 13:33 51.49567 168.79542 36934 ft 532 kts 55°
2026-05-04 13:33 51.53059 168.90005 36933 ft 531 kts 56°
2026-05-04 13:34 51.56534 169.00462 36934 ft 530 kts 56°
2026-05-04 13:34 51.59996 169.10923 36928 ft 529 kts 56°
2026-05-04 13:35 51.65151 169.26583 36933 ft 527 kts 56°
2026-05-04 13:36 51.68567 169.37016 36930 ft 526 kts 56°
2026-05-04 13:36 51.71969 169.47451 36937 ft 525 kts 57°
2026-05-04 13:37 51.75354 169.57877 36933 ft 524 kts 57°
2026-05-04 13:37 51.78726 169.68307 36932 ft 523 kts 57°
2026-05-04 13:38 51.82080 169.78725 36932 ft 522 kts 57°
2026-05-04 13:38 51.85400 169.89081 36932 ft 522 kts 57°
2026-05-04 13:39 51.88727 169.99505 36926 ft 521 kts 57°
2026-05-04 13:39 51.92040 170.09932 36927 ft 520 kts 58°
2026-05-04 13:40 51.95340 170.20359 36927 ft 520 kts 58°
2026-05-04 13:40 51.98629 170.30792 36926 ft 519 kts 58°
2026-05-04 13:41 52.01901 170.41219 36929 ft 518 kts 58°
2026-05-04 13:41 52.04612 170.49890 36929 ft 517 kts 58°
2026-05-04 13:42 52.09479 170.65519 36923 ft 516 kts 59°
2026-05-04 13:42 52.12826 170.75801 36922 ft 510 kts 50°
2026-05-04 13:43 52.17454 170.84369 36938 ft 503 kts 42°
2026-05-04 13:43 52.22175 170.92796 36928 ft 505 kts 46°
2026-05-04 13:44 52.26649 171.01612 36931 ft 503 kts 45°
2026-05-04 13:44 52.31285 171.10186 36937 ft 503 kts 46°
2026-05-04 13:45 52.35774 171.18950 36935 ft 502 kts 46°
2026-05-04 13:45 52.40301 171.27574 36940 ft 502 kts 45°
2026-05-04 13:46 52.44850 171.36250 36943 ft 501 kts 46°
2026-05-04 13:46 52.49375 171.44952 36943 ft 501 kts 46°
2026-05-04 13:47 52.53878 171.53679 36941 ft 501 kts 46°
2026-05-04 13:47 52.58373 171.62422 36950 ft 500 kts 47°
2026-05-04 13:48 52.62858 171.71168 36949 ft 500 kts 47°
2026-05-04 13:48 52.67337 171.79930 36946 ft 500 kts 47°
2026-05-04 13:49 52.71798 171.88688 36954 ft 500 kts 47°
2026-05-04 13:49 52.76276 171.97515 36955 ft 500 kts 47°
2026-05-04 13:50 52.80733 172.06328 36951 ft 500 kts 47°
2026-05-04 13:50 52.85184 172.15161 36956 ft 499 kts 47°
2026-05-04 13:51 52.89595 172.23944 36962 ft 499 kts 48°
2026-05-04 13:51 52.94029 172.32806 36957 ft 499 kts 48°
2026-05-04 13:52 53.00663 172.46124 36962 ft 499 kts 48°
2026-05-04 13:53 53.05071 172.55012 36970 ft 498 kts 48°
2026-05-04 13:53 53.09463 172.63902 36973 ft 497 kts 48°
2026-05-04 13:54 53.16022 172.77230 36978 ft 495 kts 49°
2026-05-04 13:55 53.22546 172.90563 36981 ft 494 kts 49°
2026-05-04 13:55 53.29038 173.03900 36988 ft 493 kts 49°
2026-05-04 13:56 53.33352 173.12796 36993 ft 493 kts 49°
2026-05-04 13:57 53.39808 173.26178 36993 ft 492 kts 49°
2026-05-04 13:58 53.48389 173.44069 37007 ft 491 kts 49°
2026-05-04 13:58 53.54705 173.57635 37014 ft 492 kts 54°
2026-05-04 13:59 53.58317 173.67458 37011 ft 493 kts 57°
2026-05-04 14:00 53.63856 173.81930 37018 ft 492 kts 55°
2026-05-04 14:00 53.69301 173.96605 37024 ft 492 kts 56°
2026-05-04 14:01 53.72993 174.06332 37021 ft 492 kts 56°
2026-05-04 14:02 53.78499 174.20962 37036 ft 491 kts 56°
2026-05-04 14:02 53.82140 174.30752 37034 ft 492 kts 56°
2026-05-04 14:03 53.85770 174.40559 37038 ft 491 kts 56°
2026-05-04 14:03 53.89389 174.50366 37041 ft 491 kts 56°
2026-05-04 14:04 53.94807 174.65121 37043 ft 491 kts 56°
2026-05-04 14:04 53.98409 174.74965 37046 ft 491 kts 57°
2026-05-04 14:05 54.03799 174.89780 37046 ft 491 kts 57°
2026-05-04 14:06 54.07357 174.99606 37055 ft 491 kts 57°
2026-05-04 14:06 54.10931 175.09529 37055 ft 491 kts 57°
2026-05-04 14:07 54.14490 175.19438 37055 ft 491 kts 57°
2026-05-04 14:07 54.18048 175.29394 37058 ft 490 kts 57°
2026-05-04 14:08 54.21591 175.39346 37061 ft 491 kts 57°
2026-05-04 14:08 54.25134 175.49315 37060 ft 490 kts 57°
2026-05-04 14:09 54.30434 175.64339 37066 ft 491 kts 57°
2026-05-04 14:10 54.35717 175.79393 37070 ft 492 kts 57°
2026-05-04 14:10 54.39225 175.89449 37082 ft 491 kts 57°
2026-05-04 14:11 54.42732 175.99533 37086 ft 492 kts 58°
2026-05-04 14:11 54.47973 176.14697 37086 ft 492 kts 58°
2026-05-04 14:12 54.51459 176.24831 37091 ft 492 kts 58°
2026-05-04 14:13 54.56644 176.39984 37096 ft 491 kts 58°
2026-05-04 14:13 54.60108 176.50160 37091 ft 492 kts 58°
2026-05-04 14:14 54.63555 176.60330 37104 ft 492 kts 58°
2026-05-04 14:14 54.68718 176.75625 37099 ft 492 kts 58°
2026-05-04 14:15 54.75568 176.96089 37113 ft 491 kts 58°
2026-05-04 14:16 54.80678 177.11465 37121 ft 491 kts 58°
2026-05-04 14:17 54.85775 177.26888 37121 ft 492 kts 59°
2026-05-04 14:18 54.90855 177.42364 37121 ft 491 kts 59°
2026-05-04 14:19 54.97574 177.62999 37129 ft 492 kts 59°
2026-05-04 14:19 55.00938 177.73384 37136 ft 492 kts 59°
2026-05-04 14:20 55.04291 177.83785 37134 ft 492 kts 59°
2026-05-04 14:20 55.07633 177.94210 37144 ft 493 kts 59°
2026-05-04 14:21 55.12640 178.09894 37146 ft 492 kts 59°
2026-05-04 14:21 55.15966 178.20369 37145 ft 492 kts 59°
2026-05-04 14:22 55.19280 178.30861 37148 ft 493 kts 59°
2026-05-04 14:22 55.22597 178.41400 37150 ft 495 kts 59°
2026-05-04 14:23 55.27562 178.57261 37153 ft 495 kts 60°
2026-05-04 14:24 55.30857 178.67857 37155 ft 495 kts 60°
2026-05-04 14:24 55.34123 178.78410 37157 ft 495 kts 60°
2026-05-04 14:25 55.37424 178.89026 37163 ft 495 kts 59°
2026-05-04 14:25 55.42363 179.05015 37161 ft 496 kts 60°
2026-05-04 14:26 55.45641 179.15706 37160 ft 496 kts 60°
2026-05-04 14:26 55.48907 179.26412 37166 ft 496 kts 60°
2026-05-04 14:27 55.52171 179.37151 37172 ft 497 kts 60°
2026-05-04 14:27 55.55425 179.47914 37169 ft 497 kts 60°
2026-05-04 14:28 55.58126 179.56873 37172 ft 497 kts 60°
2026-05-04 14:28 55.61371 179.67685 37179 ft 498 kts 60°
2026-05-04 14:29 55.67841 179.89398 37181 ft 499 kts 60°
2026-05-04 14:30 55.71069 -179.99694 37192 ft 500 kts 60°
2026-05-04 14:31 55.75896 -179.83293 37192 ft 500 kts 60°
2026-05-04 14:32 55.82294 -179.61367 37189 ft 500 kts 61°
2026-05-04 14:32 55.85482 -179.50365 37194 ft 500 kts 61°
2026-05-04 14:33 55.88662 -179.39341 37197 ft 501 kts 61°
2026-05-04 14:33 55.91838 -179.28275 37185 ft 501 kts 61°
2026-05-04 14:34 55.94979 -179.17280 37188 ft 501 kts 61°
2026-05-04 14:34 55.98139 -179.06167 37193 ft 502 kts 61°
2026-05-04 14:35 56.01287 -178.95040 37194 ft 502 kts 61°
2026-05-04 14:35 56.04430 -178.83879 37203 ft 502 kts 62°
2026-05-04 14:36 56.07565 -178.72689 37198 ft 503 kts 62°
2026-05-04 14:36 56.10690 -178.61485 37205 ft 503 kts 62°
2026-05-04 14:37 56.13803 -178.50264 37202 ft 503 kts 62°
2026-05-04 14:37 56.16906 -178.39028 37206 ft 503 kts 62°
2026-05-04 14:38 56.20002 -178.27762 37206 ft 503 kts 62°
2026-05-04 14:38 56.23089 -178.16474 37204 ft 503 kts 62°
2026-05-04 14:39 56.26167 -178.05157 37208 ft 503 kts 62°
2026-05-04 14:39 56.29216 -177.93899 37209 ft 504 kts 62°
2026-05-04 14:40 56.33800 -177.76866 37209 ft 504 kts 62°
2026-05-04 14:40 56.36842 -177.65484 37204 ft 504 kts 62°
2026-05-04 14:41 56.39878 -177.54075 37211 ft 504 kts 62°
2026-05-04 14:42 56.45917 -177.31202 37206 ft 505 kts 62°
2026-05-04 14:42 56.48923 -177.19728 37208 ft 505 kts 62°
2026-05-04 14:43 56.51920 -177.08234 37208 ft 505 kts 63°
2026-05-04 14:43 56.54906 -176.96723 37210 ft 505 kts 63°
2026-05-04 14:44 56.57885 -176.85174 37201 ft 505 kts 63°
2026-05-04 14:44 56.60854 -176.73609 37209 ft 505 kts 63°
2026-05-04 14:45 56.63798 -176.62083 37202 ft 506 kts 63°
2026-05-04 14:45 56.66746 -176.50480 37208 ft 506 kts 63°
2026-05-04 14:46 56.69687 -176.38843 37213 ft 506 kts 63°
2026-05-04 14:46 56.72616 -176.27192 37210 ft 506 kts 63°
2026-05-04 14:47 56.75535 -176.15520 37209 ft 507 kts 63°
2026-05-04 14:47 56.78448 -176.03817 37214 ft 507 kts 63°
2026-05-04 14:48 56.81351 -175.92080 37214 ft 507 kts 63°
2026-05-04 14:48 56.84213 -175.80403 37211 ft 507 kts 63°
2026-05-04 14:49 56.87089 -175.68617 37212 ft 508 kts 63°
2026-05-04 14:49 56.89953 -175.56807 37214 ft 508 kts 63°
2026-05-04 14:50 56.92807 -175.44973 37213 ft 508 kts 64°
2026-05-04 14:50 56.95652 -175.33110 37211 ft 509 kts 64°
2026-05-04 14:51 56.98486 -175.21229 37210 ft 509 kts 64°
2026-05-04 14:51 57.01310 -175.09324 37210 ft 509 kts 64°
2026-05-04 14:52 57.04126 -174.97386 37209 ft 509 kts 64°
2026-05-04 14:52 57.06928 -174.85442 37208 ft 509 kts 64°
2026-05-04 14:53 57.09702 -174.73549 37205 ft 509 kts 64°
2026-05-04 14:53 57.12485 -174.61557 37207 ft 509 kts 64°
2026-05-04 14:54 57.15258 -174.49538 37206 ft 509 kts 64°
2026-05-04 14:54 57.18018 -174.37502 37208 ft 510 kts 64°
2026-05-04 14:55 57.20768 -174.25451 37208 ft 510 kts 64°
2026-05-04 14:55 57.23504 -174.13382 37205 ft 510 kts 64°
2026-05-04 14:56 57.26229 -174.01293 37209 ft 510 kts 64°
2026-05-04 14:56 57.28946 -173.89177 37206 ft 510 kts 65°
2026-05-04 14:57 57.31649 -173.77056 37207 ft 510 kts 65°
2026-05-04 14:57 57.34325 -173.64994 37202 ft 510 kts 64°
2026-05-04 14:58 57.37064 -173.52887 37197 ft 510 kts 64°
2026-05-04 14:58 57.39818 -173.40777 37189 ft 510 kts 64°
2026-05-04 14:59 57.42560 -173.28638 37195 ft 510 kts 65°
2026-05-04 15:00 57.46636 -173.10395 37200 ft 510 kts 65°
2026-05-04 15:00 57.49333 -172.98209 37204 ft 510 kts 65°
2026-05-04 15:01 57.53362 -172.79878 37199 ft 510 kts 65°
2026-05-04 15:01 57.56034 -172.67638 37201 ft 510 kts 65°
2026-05-04 15:02 57.58694 -172.55379 37199 ft 510 kts 65°
2026-05-04 15:02 57.61342 -172.43106 37199 ft 510 kts 66°
2026-05-04 15:03 57.63960 -172.30895 37194 ft 510 kts 66°
2026-05-04 15:03 57.66587 -172.18565 37203 ft 510 kts 66°
2026-05-04 15:04 57.69201 -172.06229 37200 ft 510 kts 66°
2026-05-04 15:04 57.71801 -171.93880 37197 ft 510 kts 66°
2026-05-04 15:05 57.74391 -171.81504 37196 ft 510 kts 66°
2026-05-04 15:05 57.76968 -171.69118 37197 ft 511 kts 67°
2026-05-04 15:06 57.79535 -171.56701 37196 ft 511 kts 67°
2026-05-04 15:07 57.83363 -171.38045 37194 ft 511 kts 67°
2026-05-04 15:07 57.85899 -171.25587 37196 ft 511 kts 68°
2026-05-04 15:08 57.88428 -171.13091 37192 ft 512 kts 68°
2026-05-04 15:08 57.90928 -171.00653 37196 ft 512 kts 68°
2026-05-04 15:09 57.93430 -170.88123 37195 ft 512 kts 68°
2026-05-04 15:09 57.95913 -170.75559 37190 ft 512 kts 68°
2026-05-04 15:10 57.99992 -170.56942 37189 ft 513 kts 67°
2026-05-04 15:11 58.03926 -170.38132 37187 ft 514 kts 66°
2026-05-04 15:11 58.06614 -170.25615 37183 ft 515 kts 66°
2026-05-04 15:12 58.09284 -170.13066 37181 ft 515 kts 67°
2026-05-04 15:12 58.11925 -170.00469 37184 ft 516 kts 67°
2026-05-04 15:13 58.14553 -169.87835 37183 ft 516 kts 67°
2026-05-04 15:13 58.17151 -169.75257 37180 ft 517 kts 67°
2026-05-04 15:14 58.19766 -169.62550 37181 ft 517 kts 67°
2026-05-04 15:14 58.22371 -169.49822 37177 ft 518 kts 67°
2026-05-04 15:15 58.24968 -169.37062 37177 ft 518 kts 68°
2026-05-04 15:15 58.27547 -169.24275 37175 ft 518 kts 68°
2026-05-04 15:16 58.31387 -169.05063 37172 ft 518 kts 68°
2026-05-04 15:17 58.35202 -168.85812 37166 ft 518 kts 68°
2026-05-04 15:17 58.38571 -168.68689 37161 ft 518 kts 69°
2026-05-04 15:18 58.41485 -168.53701 37162 ft 519 kts 69°
2026-05-04 15:19 58.44822 -168.36431 37155 ft 518 kts 69°
2026-05-04 15:19 58.48540 -168.17018 37154 ft 518 kts 69°
2026-05-04 15:20 58.50979 -168.04150 37152 ft 518 kts 70°
2026-05-04 15:20 58.53429 -167.91162 37149 ft 519 kts 70°
2026-05-04 15:21 58.55862 -167.78176 37148 ft 518 kts 70°
2026-05-04 15:22 58.59487 -167.58646 37143 ft 519 kts 70°
2026-05-04 15:22 58.63089 -167.39049 37138 ft 519 kts 70°
2026-05-04 15:23 58.65475 -167.25953 37139 ft 519 kts 71°
2026-05-04 15:23 58.67846 -167.12853 37136 ft 519 kts 71°
2026-05-04 15:24 58.72573 -166.86566 37130 ft 520 kts 71°
2026-05-04 15:25 58.74963 -166.73416 37128 ft 520 kts 71°
2026-05-04 15:26 58.78500 -166.53725 37119 ft 521 kts 71°
2026-05-04 15:26 58.82013 -166.33878 37113 ft 522 kts 72°
2026-05-04 15:27 58.85504 -166.13948 37108 ft 522 kts 72°
2026-05-04 15:28 58.88957 -165.93975 37102 ft 523 kts 73°
2026-05-04 15:29 58.92419 -165.73940 37089 ft 524 kts 73°
2026-05-04 15:30 59.00370 -165.27006 37078 ft 524 kts 74°
2026-05-04 15:31 59.03742 -165.06823 37074 ft 523 kts 75°
2026-05-04 15:32 59.09286 -164.73111 37059 ft 524 kts 75°
2026-05-04 15:34 59.14711 -164.39383 37047 ft 523 kts 75°
2026-05-04 15:34 59.17890 -164.19048 37052 ft 523 kts 75°
2026-05-04 15:35 59.21115 -163.98718 37043 ft 522 kts 75°
2026-05-04 15:36 59.24234 -163.78341 37043 ft 522 kts 76°
2026-05-04 15:36 59.26342 -163.64752 37036 ft 522 kts 76°
2026-05-04 15:37 59.28382 -163.51126 37035 ft 522 kts 76°
2026-05-04 15:37 59.30441 -163.37512 37026 ft 522 kts 76°
2026-05-04 15:38 59.32505 -163.23880 37022 ft 522 kts 76°
2026-05-04 15:38 59.34495 -163.10222 37026 ft 521 kts 77°
2026-05-04 15:39 59.36518 -162.96583 37019 ft 521 kts 77°
2026-05-04 15:40 59.39482 -162.76082 37011 ft 520 kts 77°
2026-05-04 15:40 59.41458 -162.62421 37015 ft 520 kts 77°
2026-05-04 15:41 59.43425 -162.48842 37012 ft 520 kts 77°
2026-05-04 15:41 59.45323 -162.35136 37026 ft 519 kts 78°
2026-05-04 15:42 59.47494 -162.21560 37026 ft 522 kts 73°
2026-05-04 15:42 59.49846 -162.08069 37031 ft 520 kts 76°
2026-05-04 15:43 59.52054 -161.94470 37036 ft 521 kts 75°
2026-05-04 15:43 59.54358 -161.80927 37035 ft 522 kts 75°
2026-05-04 15:44 59.56599 -161.67330 37030 ft 521 kts 76°
2026-05-04 15:44 59.58810 -161.53707 37031 ft 522 kts 75°
2026-05-04 15:45 59.61062 -161.40075 37009 ft 522 kts 76°
2026-05-04 15:45 59.63222 -161.26410 37001 ft 521 kts 76°
2026-05-04 15:46 59.65427 -161.12766 36975 ft 521 kts 76°
2026-05-04 15:46 59.67574 -160.99174 36972 ft 520 kts 77°
2026-05-04 15:47 59.69719 -160.85488 36961 ft 521 kts 76°
2026-05-04 15:47 59.71890 -160.71798 36945 ft 521 kts 77°
2026-05-04 15:48 59.73973 -160.58064 36941 ft 520 kts 77°
2026-05-04 15:48 59.77170 -160.37469 36934 ft 520 kts 78°
2026-05-04 15:49 59.79218 -160.23706 36929 ft 520 kts 77°
2026-05-04 15:49 59.81323 -160.09960 36942 ft 520 kts 77°
2026-05-04 15:50 59.83341 -159.96170 36945 ft 520 kts 78°
2026-05-04 15:50 59.85404 -159.82381 36950 ft 521 kts 77°
2026-05-04 15:51 59.87437 -159.68571 36960 ft 519 kts 79°
2026-05-04 15:51 59.89435 -159.54744 36965 ft 520 kts 78°
2026-05-04 15:52 59.91466 -159.40927 36976 ft 519 kts 79°
2026-05-04 15:52 59.93405 -159.27048 36976 ft 520 kts 78°
2026-05-04 15:53 59.95395 -159.13280 36987 ft 520 kts 78°
2026-05-04 15:53 59.97327 -158.99300 36979 ft 519 kts 79°
2026-05-04 15:54 59.99285 -158.85412 36991 ft 519 kts 79°
2026-05-04 15:54 60.01202 -158.71584 36997 ft 519 kts 80°
2026-05-04 15:55 60.03098 -158.57647 36987 ft 520 kts 79°
2026-05-04 15:55 60.05026 -158.43717 36983 ft 519 kts 80°
2026-05-04 15:56 60.06864 -158.29730 36995 ft 519 kts 80°
2026-05-04 15:56 60.08769 -158.15761 37000 ft 520 kts 80°
2026-05-04 15:57 60.10581 -158.01747 36988 ft 520 kts 80°
2026-05-04 15:57 60.12449 -157.87741 36974 ft 520 kts 80°
2026-05-04 15:58 60.14242 -157.73713 36977 ft 519 kts 81°
2026-05-04 15:58 60.16064 -157.59695 36975 ft 519 kts 81°
2026-05-04 15:59 60.17834 -157.45738 36981 ft 518 kts 82°
2026-05-04 15:59 60.19609 -157.31686 36974 ft 519 kts 81°
2026-05-04 16:00 60.21383 -157.17622 36977 ft 518 kts 83°
2026-05-04 16:00 60.23112 -157.03521 36972 ft 520 kts 82°
2026-05-04 16:01 60.24868 -156.89424 36981 ft 517 kts 83°
2026-05-04 16:01 60.26545 -156.75326 36968 ft 519 kts 82°
2026-05-04 16:02 60.28287 -156.61214 36975 ft 518 kts 83°
2026-05-04 16:03 60.30787 -156.40018 36977 ft 519 kts 83°
2026-05-04 16:03 60.32427 -156.25828 36979 ft 518 kts 84°
2026-05-04 16:04 60.34084 -156.11737 36979 ft 520 kts 83°
2026-05-04 16:04 60.36511 -155.90402 36988 ft 520 kts 83°
2026-05-04 16:05 60.38173 -155.76135 36993 ft 521 kts 84°
2026-05-04 16:06 60.40273 -155.57103 36998 ft 522 kts 84°
2026-05-04 16:07 60.43439 -155.28371 36979 ft 524 kts 84°
2026-05-04 16:08 60.46551 -154.99523 36984 ft 525 kts 84°
2026-05-04 16:09 60.50402 -154.63303 36967 ft 528 kts 83°
2026-05-04 16:10 60.54281 -154.34397 36974 ft 531 kts 82°
2026-05-04 16:11 60.58092 -154.05320 36978 ft 533 kts 82°
2026-05-04 16:12 60.60909 -153.83539 36233 ft 524 kts 83°
2026-05-04 16:12 60.63614 -153.62205 34030 ft 516 kts 85°
2026-05-04 16:13 60.65409 -153.48140 32672 ft 506 kts 86°
2026-05-04 16:13 60.67113 -153.34367 31325 ft 499 kts 84°
2026-05-04 16:14 60.68748 -153.20788 30096 ft 489 kts 85°
2026-05-04 16:14 60.70393 -153.07542 28785 ft 477 kts 85°
2026-05-04 16:15 60.72737 -152.88035 26849 ft 464 kts 85°
2026-05-04 16:16 60.74245 -152.75335 25635 ft 454 kts 83°
2026-05-04 16:16 60.76430 -152.56757 23938 ft 441 kts 82°
2026-05-04 16:17 60.77818 -152.44645 22504 ft 435 kts 83°
2026-05-04 16:18 60.79868 -152.26879 20788 ft 421 kts 83°
2026-05-04 16:18 60.80552 -152.21049 20169 ft 419 kts 82°
2026-05-04 16:19 60.82315 -152.03794 18493 ft 407 kts 85°
2026-05-04 16:19 60.83455 -151.92604 17390 ft 399 kts 84°
2026-05-04 16:20 60.85035 -151.76182 15812 ft 385 kts 83°
2026-05-04 16:20 60.86036 -151.65556 14845 ft 374 kts 84°
2026-05-04 16:21 60.87536 -151.50095 13310 ft 362 kts 83°
2026-05-04 16:22 60.89144 -151.40352 12255 ft 358 kts 73°
2026-05-04 16:22 60.91812 -151.26319 10831 ft 345 kts 71°
2026-05-04 16:23 60.94458 -151.12887 9055 ft 318 kts 71°
2026-05-04 16:24 60.99682 -151.00397 6265 ft 269 kts 46°
2026-05-04 16:25 61.02390 -150.95281 4740 ft 261 kts 44°
2026-05-04 16:26 61.07529 -150.85606 2932 ft 241 kts 45°
2026-05-04 16:26 61.11253 -150.78564 2948 ft 242 kts 45°
2026-05-04 16:27 61.13758 -150.73845 2992 ft 244 kts 46°
2026-05-04 16:28 61.15551 -150.64309 2994 ft 240 kts 77°
2026-05-04 16:28 61.16479 -150.54333 3021 ft 213 kts 83°
2026-05-04 16:29 61.17114 -150.44185 2996 ft 167 kts 88°
2026-05-04 16:30 61.17065 -150.37005 3005 ft 167 kts 95°
2026-05-04 16:31 61.16929 -150.32203 3012 ft 167 kts 95°
2026-05-04 16:31 61.16923 -150.25551 2553 ft 148 kts 88°
2026-05-04 16:32 61.16973 -150.19156 1914 ft 148 kts 91°
2026-05-04 16:33 61.16957 -150.14905 1517 ft 148 kts 90°
2026-05-04 16:33 61.16955 -150.10610 1075 ft 149 kts 89°
2026-05-04 16:34 61.16968 -150.06303 676 ft 153 kts 88°
2026-05-04 16:34 61.16976 -150.04085 480 ft 156 kts 89°
2026-05-04 16:35 61.16981 -149.98019 118 ft 74 kts 90°
2026-05-04 16:35 61.16983 -149.96251 111 ft 20 kts 90°
2026-05-04 16:36 61.16982 -149.96014 111 ft 10 kts 90°
2026-05-04 16:36 61.17003 -149.95919 108 ft 5 kts 20°
2026-05-04 16:37 61.17121 -149.95946 109 ft 8 kts 325°
2026-05-04 16:37 61.17130 -149.96030 110 ft 7 kts 268°
2026-05-04 16:37 61.17130 -149.96520 115 ft 25 kts 269°
2026-05-04 16:38 61.17126 -149.97322 121 ft 29 kts 266°
2026-05-04 16:39 61.17118 -149.98579 126 ft 27 kts 270°
2026-05-04 16:39 61.17126 -149.99399 134 ft 25 kts 270°
2026-05-04 16:40 61.17126 -149.99969 137 ft 17 kts 270°
2026-05-04 16:40 61.17180 -150.00196 139 ft 17 kts 346°
2026-05-04 16:41 61.17558 -150.00406 142 ft 33 kts 345°
2026-05-04 16:41 61.18206 -150.00769 145 ft 31 kts 345°
2026-05-04 16:42 61.18879 -150.01146 155 ft 37 kts 345°
2026-05-04 16:43 61.19276 -150.01370 160 ft 22 kts 345°
2026-05-04 16:43 61.19475 -150.01410 159 ft 8 kts 52°
2026-05-04 16:43 61.19507 -150.01221 161 ft 20 kts 75°
2026-05-04 16:44 61.19711 -150.00962 164 ft 12 kts 346°
2026-05-04 16:45 61.19792 -150.00972 165 ft 4 kts 46°
2026-05-04 16:46 61.19833 -150.00700 159 ft 4 kts 74°
2026-05-04 16:46 61.19847 -150.00601 157 ft 4 kts 77°
2026-05-04 16:47 61.19819 -150.00549 156 ft 4 kts 158°
2026-05-04 16:47 61.19791 -150.00533 156 ft 2 kts 165°
2026-05-04 16:48 61.19788 -150.00532 156 ft 0 kts 165°